Time,TemperatureF,DewpointF,PressureIn,WindDirection,WindDirectionDegrees,WindSpeedMPH,WindSpeedGustMPH,Humidity,HourlyPrecipIn,Conditions,Clouds,dailyrainin,SoftwareType,DateUTC
2013-12-08 00:40:00,57.6,57.0,30.09,ENE,68,0.0,0.0,98,0.00,CLR,SCT,0.00,WeatherDisplay:10.37,2013-12-08 09:40:00,
2013-12-08 02:17:00,57.6,57.0,30.09,ENE,68,0.0,0.0,98,0.00,CLR,SCT,0.00,WeatherDisplay:10.37,2013-12-08 11:17:00,
2013-12-08 02:36:00,57.6,57.0,30.09,ENE,68,0.0,0.0,98,0.00,CLR,SCT,0.00,WeatherDisplay:10.37,2013-12-08 11:36:00,
2013-12-08 03:50:00,57.6,57.0,30.09,ENE,68,0.0,0.0,98,0.00,CLR,SCT,0.00,WeatherDisplay:10.37,2013-12-08 12:50:00,
2013-12-08 05:37:00,57.6,57.0,30.09,ENE,68,0.0,0.0,98,0.00,CLR,SCT,0.00,WeatherDisplay:10.37,2013-12-08 14:37:00,
2013-12-08 07:56:00,57.6,57.0,30.09,ENE,68,0.0,0.0,98,0.00,CLR,SCT,0.00,WeatherDisplay:10.37,2013-12-08 16:56:00,
2013-12-08 08:35:00,57.6,57.0,30.09,ENE,68,0.0,0.0,98,0.00,CLR,SCT,0.00,WeatherDisplay:10.37,2013-12-08 17:35:00,
2013-12-08 10:04:00,57.6,57.0,30.09,ENE,68,0.0,0.0,98,0.00,CLR,SCT,0.00,WeatherDisplay:10.37,2013-12-08 19:04:00,
2013-12-08 11:39:00,57.6,57.0,30.09,ENE,68,0.0,0.0,98,0.00,CLR,SCT,0.00,WeatherDisplay:10.37,2013-12-08 20:39:00,
2013-12-08 12:38:00,57.6,57.0,30.09,ENE,68,0.0,0.0,98,0.00,CLR,SCT,0.00,WeatherDisplay:10.37,2013-12-08 21:38:00,
2013-12-08 13:41:00,57.6,57.0,30.09,ENE,68,0.0,0.0,98,0.00,CLR,SCT,0.00,WeatherDisplay:10.37,2013-12-08 22:41:00,
2013-12-08 17:21:00,57.6,57.0,30.09,ENE,68,0.0,0.0,98,0.00,CLR,SCT,0.00,WeatherDisplay:10.37,2013-12-09 02:21:00,
2013-12-08 18:17:00,57.6,57.0,30.09,ENE,68,0.0,0.0,98,0.00,CLR,SCT,0.00,WeatherDisplay:10.37,2013-12-09 03:17:00,
2013-12-08 19:30:00,57.6,57.0,30.09,ENE,68,0.0,0.0,98,0.00,CLR,SCT,0.00,WeatherDisplay:10.37,2013-12-09 04:30:00,
2013-12-08 21:45:00,57.6,57.0,30.09,ENE,68,0.0,0.0,98,0.00,CLR,SCT,0.00,WeatherDisplay:10.37,2013-12-09 06:45:00,
2013-12-08 22:30:00,42.4,41.6,30.09,SE,135,3.1,3.1,97,0.00,CLR,SCT,0.00,WeatherDisplay:10.37,2013-12-09 07:30:00,
2013-12-08 22:35:00,42.4,41.6,29.97,SE,135,3.5,3.5,97,0.00,CLR,SCT,0.00,WeatherDisplay:10.37,2013-12-09 07:35:00,
2013-12-08 22:40:00,42.4,41.6,29.97,SE,135,3.5,3.5,97,0.00,CLR,SCT,0.00,WeatherDisplay:10.37,2013-12-09 07:40:00,
2013-12-08 22:45:00,42.4,41.6,29.97,SE,135,3.5,3.5,97,0.00,CLR,SCT,0.00,WeatherDisplay:10.37,2013-12-09 07:45:00,
2013-12-08 22:50:00,42.4,41.6,29.97,SE,135,3.5,3.5,97,0.00,CLR,SCT,0.00,WeatherDisplay:10.37,2013-12-09 07:50:00,
2013-12-08 22:55:00,42.4,41.6,29.97,SE,135,3.5,3.5,97,0.00,CLR,SCT,0.00,WeatherDisplay:10.37,2013-12-09 07:55:00,
2013-12-08 23:00:00,42.4,41.6,29.97,SE,135,4.6,4.6,97,0.00,CLR,SCT,0.00,WeatherDisplay:10.37,2013-12-09 08:00:00,
2013-12-08 23:05:00,42.6,41.8,29.97,SE,135,3.5,3.5,97,0.00,CLR,SCT,0.00,WeatherDisplay:10.37,2013-12-09 08:05:00,
2013-12-08 23:10:00,42.6,41.8,29.97,SE,135,3.5,3.5,97,0.00,CLR,SCT,0.00,WeatherDisplay:10.37,2013-12-09 08:10:00,
2013-12-08 23:15:00,42.4,41.6,29.97,SE,135,2.6,2.6,97,0.00,CLR,SCT,0.00,WeatherDisplay:10.37,2013-12-09 08:15:00,
2013-12-08 23:20:00,42.6,41.8,29.97,SE,135,3.5,3.5,97,0.00,CLR,SCT,0.00,WeatherDisplay:10.37,2013-12-09 08:20:00,
2013-12-08 23:25:00,43.3,42.3,29.97,SE,135,4.6,4.6,96,0.00,CLR,SCT,0.00,WeatherDisplay:10.37,2013-12-09 08:25:00,
2013-12-08 23:30:00,44.1,43.0,29.97,SE,135,4.6,4.6,96,0.00,CLR,SCT,0.00,WeatherDisplay:10.37,2013-12-09 08:30:00,
2013-12-08 23:35:00,45.1,44.1,29.97,SE,135,2.6,2.6,96,0.00,CLR,SCT,0.00,WeatherDisplay:10.37,2013-12-09 08:35:00,
2013-12-08 23:40:00,45.9,44.8,29.97,SE,135,3.5,3.5,96,0.00,CLR,SCT,0.00,WeatherDisplay:10.37,2013-12-09 08:40:00,
2013-12-08 23:45:00,46.2,45.1,29.97,SE,135,3.5,3.5,96,0.00,CLR,SCT,0.00,WeatherDisplay:10.37,2013-12-09 08:45:00,
2013-12-08 23:50:00,46.8,45.4,29.97,SE,135,4.6,4.6,95,0.00,CLR,SCT,0.00,WeatherDisplay:10.37,2013-12-09 08:50:00,
2013-12-08 23:55:00,48.4,47.0,29.97,SE,135,4.6,4.6,95,0.00,CLR,SCT,0.00,WeatherDisplay:10.37,2013-12-09 08:55:00,
2013-12-08 23:56:00,48.7,47.4,29.97,SE,135,4.6,4.6,95,0.00,CLR,SCT,0.00,WeatherDisplay:10.37,2013-12-09 08:56:00,